Regional Weather Roundup
Issued by NWS Jackson, KY

Home | Current Version | Previous Version | Graphics & Text | Print | Product List | Glossary On
Versions: 1 2 3 4 5 6 7 8 9 10 11 12 13 14 15 16 17 18 19 20 21 22 23 24 25 26 27
000
ASUS43 KJKL 210810
RWRJKL

EAST KENTUCKY HOURLY WEATHER ROUNDUP
NATIONAL WEATHER SERVICE JACKSON KY
400 AM EDT SAT OCT 21 2017

NOTE: "FAIR" INDICATES FEW OR NO CLOUDS BELOW 12,000 FEET WITH
NO SIGNIFICANT WEATHER AND/OR OBSTRUCTIONS TO VISIBILITY.

* THESE REPORTS ARE NOT UNDER NWS QUALITY CONTROL AND MAY NOT
  REPORT WEATHER SUCH AS PRECIPITATION AND FOG.

KYZ079-080-083-085-087-088-110-112-115-119-120-210900
...EASTERN KENTUCKY...

CITY           SKY/WX    TMP DP  RH WIND       PRES   REMARKS
JACKSON        CLEAR     56  50  80 S3        30.21F
LONDON         CLEAR     47  45  93 CALM      30.22S
SOMERSET*      CLEAR     46  46 100 CALM      30.23S FOG
MONTICELLO*    CLOUDY    43  42  97 NW8       30.23R
WILLIAMSBURG*  SUNNY     48  48 100 SE3       30.22F
MIDDLESBORO*   FOG       46  46 100 CALM      30.26S VSB 3/4
HARLAN APT*    CLOUDY    46  46 100 CALM      30.26R VSB 3/4
PIKE CO APT*     N/A     53  52  98 S6        30.23S
BIG SANDY APT* SUNNY     51  51 100 CALM      30.22S
MOREHEAD APT*  SUNNY     55  50  82 CALM      30.22F
$$

KYZ035-036-041-042-044-050-067-078-099-210900
...CENTRAL KENTUCKY...

CITY           SKY/WX    TMP DP  RH WIND       PRES   REMARKS
MT STERLING*   CLOUDY    46  46 100 S3        30.22S
FLEMING/MASON* CLEAR     50  50  99 CALM      30.21F
DANVILLE*      CLEAR     45  45 100 S3        30.21S
LEXINGTON      CLEAR     53  48  83 SE6       30.19F
FRANKFORT      CLEAR     48  44  86 CALM      30.18S
LOUISVILLE     PTCLDY    55  51  86 SE5       30.16S
LEBANON*         N/A     55  48  76 SE6       30.18F
GLASGOW*       PTCLDY    48  48 100 CALM      30.18S
BOWLING GREEN  PTCLDY    49  48  97 CALM      30.18S
$$

KYZ091>093-OHZ055-061-077-WVZ005-015-034-035-042-210900
...SOUTHERN OHIO/WEST VIRGINIA...

CITY           SKY/WX    TMP DP  RH WIND       PRES   REMARKS
COVINGTON      CLOUDY    55  52  89 S8        30.18S
COLUMBUS       PTCLDY    49  44  83 CALM      30.21S
DAYTON         CLOUDY    55  53  93 S7        30.19F
WILMINGTON     CLOUDY    53  51  93 SE5       30.20F
HUNTINGTON     CLEAR     51  49  92 CALM      30.21F FOG
CHARLESTON     PTCLDY    47  45  93 CALM      30.23S
PINEVILLE*     CLEAR     45  44  95 MISG      30.31S
BECKLEY        CLEAR     56  44  64 SE7       30.28S
BLUEFIELD      CLEAR     54  42  64 SE6       30.30S
LOGAN CO APT*    N/A     54  50  87 CALM      30.24S
$$

VAZ002-007-008-TNZ017-027-036-066-071-210900
...SOUTHWEST VIRGINIA/EAST TENNESSEE...

CITY           SKY/WX    TMP DP  RH WIND       PRES   REMARKS
WISE*          CLEAR     61  45  55 S6        30.28S
JONESVILLE*      N/A     43  43 100 CALM      30.28R
ABINGDON*      CLEAR     52  46  80 E3        30.27S
BRISTOL        PTCLDY    44  44 100 CALM      30.26S
MORRISTOWN*    SUNNY     50  46  87 CALM      30.24R
SEVIERVILLE*   SUNNY     46  46 100 CALM      30.23S
KNOXVILLE      CLOUDY    52  51  97 CALM      30.22S
LAFOLLETTE*    SUNNY     46  46 100 CALM      30.27S
OAK RIDGE      CLEAR     49  49 100 CALM      30.25R
CROSSVILLE     CLOUDY    50  47  89 CALM      30.24S
NASHVILLE      MOCLDY    51  47  86 S5        30.18S
$$

...KEY TO REMARKS...
VSB - VISIBILITY IN MILES
WCI - WIND CHILL INDEX
HX  - HEAT INDEX

$$




USA.gov is the U.S. government's official web portal to all federal, state and local government web resources and services.